Simultaneous Nadir Overpasses (SNOs) Predictions

Prediction of SNOs between AQUA and METOP-A Satellite Orbit:

Table of predicted SNOs for the next 14.0 days since TLE Epoch: 4/13/2018
Index Date (AQUA) Time (AQUA) Lat,Lon (AQUA) SZA (AQUA ) Date (METOP-A) Time (METOP-A) Lat,Lon (METOP-A) SZA (METOP-A ) Distance(km) Time Diff (sec)
1 04/14/2018 14:17:34 -74.05, 139.56 115.48 04/14/2018 14:16:23 -73.96, 138.37 115.51 37.87 71
2 04/14/2018 15:07:07 74.33, -53.47 64.82 04/14/2018 15:06:55 74.32, -53.39 64.81 2.36 12
3 04/14/2018 15:56:34 -74.40, 114.01 115.12 04/14/2018 15:57:36 -74.37, 114.06 115.16 3.26 62
4 04/17/2018 09:51:51 -74.13,-154.19 116.39 04/17/2018 09:50:39 -74.07,-154.96 116.41 24.42 72
5 04/17/2018 10:41:22 74.31, 13.02 63.79 04/17/2018 10:41:13 74.33, 13.03 63.82 2.50 9
6 04/17/2018 11:30:49 -74.38,-179.50 116.15 04/17/2018 11:31:54 -74.39,-179.51 116.15 0.70 65
7 04/20/2018 05:26:08 -74.22, -87.96 117.28 04/20/2018 05:24:55 -74.17, -88.30 117.30 11.12 73
8 04/20/2018 06:15:38 74.34, 79.37 62.85 04/20/2018 06:15:31 74.34, 79.45 62.84 2.40 7
9 04/20/2018 07:05:05 -74.42,-113.16 117.09 04/20/2018 07:06:12 -74.39,-113.08 117.12 3.40 67
10 04/23/2018 01:00:23 -74.26, -21.63 118.19 04/23/2018 00:59:10 -74.28, -21.63 118.16 2.01 73
11 04/23/2018 01:49:52 74.34, 145.83 61.88 04/23/2018 01:49:48 74.34, 145.86 61.89 0.91 4
12 04/23/2018 02:39:19 -74.41, -46.70 118.05 04/23/2018 02:40:29 -74.40, -46.66 118.07 1.71 70
13 04/25/2018 20:34:38 -74.26, 44.81 119.12 04/25/2018 20:33:28 -74.28, 44.78 119.09 2.45 70
14 04/25/2018 21:24:07 74.33,-147.73 60.95 04/25/2018 21:24:06 74.34,-147.74 60.96 0.48 1




NCC Satellite Simultaneous Nadir Overpasses (SNOs) Prediction Service
